Flag Weather past 2 weeks in Chongqing, Chongqing Municipality, China

Now
63 °F

Mostly cloudy.


Feels Like: 63 °F
Forecast: 60 / 67 °F
Wind: 1 mph from Northeast

Location: Chongqing Airport

Current Time: Nov 1, 2014 at 7:13:30 AM

Latest Report: Nov 1, 2014 at 6:00 AM


Visibility: 4 mi

Pressure: 30.01 "Hg

Humidity: 88%

Dew point: 59 °F

Location of ChongqingLocation

Historic Weather in Chongqing — Graph

°F

Chongqing temperature yesterday

Maximum temperature yesterday: 72 °F (at 2:00 PM)
Minimum temperature yesterday: 64 °F (at 2:00 AM)
Average temperature yesterday: 66 °F

Past Weeks' High & Low Weather Summary

 TemperatureHumidityPressure
High79 °F (Oct 22, 3:00 PM)100% (Oct 17, 6:00 AM)30.24 "Hg (Oct 17, 6:00 AM)
Low57 °F (Oct 24, 7:00 AM)48% (Oct 22, 3:00 PM)29.86 "Hg (Oct 27, 4:00 PM)
Average66 °F81%30.03 "Hg
* Reported Oct 17 6:00 AM — Nov 1 6:00 AM, Chongqing, Weather by CustomWeather, © 2014

Note: Actual official high and low records may vary slightly from our data, if they occured in-between our weather recording intervals... More about our weather records

Advertising

Chongqing weather history for previous 24 hours

 ConditionsComfort  
Time TempWeatherWind HumidityBarometerVisibility
6:00 AM
Nov 1
63 °FMostly cloudy.1 mph88%30.01 "Hg4 mi
5:00 AM63 °FMostly cloudy.1 mph88%30.01 "Hg4 mi
4:00 AM63 °FMostly cloudy.1 mph88%30.01 "HgN/A
3:00 AM64 °FMostly cloudy.3 mph83%30.01 "HgN/A
2:00 AM64 °FPassing clouds.3 mph83%30.04 "HgN/A
1:00 AM64 °FPassing clouds.1 mph83%30.04 "HgN/A
12:00 AM64 °FPassing clouds.3 mph83%30.04 "HgN/A
11:00 PM
Oct 31
64 °FPassing clouds.6 mph83%30.04 "HgN/A
10:00 PM64 °FPassing clouds.8 mph83%30.01 "HgN/A
9:00 PM64 °FMostly cloudy.6 mph83%30.01 "HgN/A
8:00 PM64 °FMostly cloudy.8 mph83%29.98 "HgN/A
7:00 PM64 °FMostly cloudy.8 mph83%29.98 "HgN/A
6:00 PM66 °FMore clouds than sun.6 mph83%29.95 "HgN/A
5:00 PM66 °FSprinkles. More clouds than sun.6 mph83%29.95 "HgN/A
4:00 PM68 °FMore clouds than sun.8 mph73%29.95 "HgN/A
3:00 PM70 °FMore clouds than sun.3 mph69%29.95 "HgN/A
2:00 PM72 °FScattered clouds.3 mph61%29.98 "HgN/A
1:00 PM70 °FScattered clouds.6 mph64%30.01 "HgN/A
12:00 PM68 °FScattered clouds.6 mph69%30.04 "HgN/A
11:00 AM66 °FScattered clouds.3 mph78%30.04 "HgN/A
10:00 AM64 °FSprinkles. Scattered clouds.6 mph83%30.04 "HgN/A
9:00 AM64 °FSprinkles. Scattered clouds.6 mph83%30.04 "HgN/A
8:00 AM64 °FScattered clouds.6 mph83%30.01 "HgN/A
7:00 AM64 °FPassing clouds.3 mph83%30.01 "HgN/A
Weather by CustomWeather, © 2014

See weather overviewHow to use our weather pages